Preston, Minnesota, United States (55965)
Lat: 43.67N, Lon: 92.08W
Wx Zone: MNZ095
Local Info
Past Weather Observations for Today

NOTE: This archive is for the closest National Weather Service station to Preston. Information may differ from the station used for current weather conditions.

Click here for Long-term Archive

Time Weather Temperature Dewpoint Humidity Pressure Winds Precip Visibility
20:13
Hazy
61°F / 16°C 55°F / 13°C 83% 29.98 in
(1015 mb)
N 4.6 mph
(N 7 kph)
- 2 1/2SM
19:54
Hazy
61°F / 16°C 57°F / 14°C 88% 29.98 in
(1015 mb)
N 6.9 mph
(N 11 kph)
- 3SM
19:33
Hazy
63°F / 17°C 57°F / 14°C 83% 29.98 in
(1015 mb)
N 8.1 mph
(N 13 kph)
- 3SM
19:14
Hazy
63°F / 17°C 55°F / 13°C 77% 29.98 in
(1015 mb)
N 8.1 mph
(N 13 kph)
- 3SM
18:54
Hazy
64°F / 18°C 55°F / 13°C 73% 29.98 in
(1015 mb)
N 9.2 mph
(N 15 kph)
- 3SM
18:33
Hazy
64°F / 18°C 57°F / 14°C 78% 29.95 in
(1014 mb)
N 11.5 mph
(N 19 kph)
- 3SM
18:14
Hazy
64°F / 18°C 57°F / 14°C 78% 29.95 in
(1014 mb)
N 10.4 mph
(N 17 kph)
- 3SM
17:54
Hazy
64°F / 18°C 57°F / 14°C 78% 29.92 in
(1013 mb)
N 16.1 mph
(N 26 kph)
- 3SM
17:33
Hazy
64°F / 18°C 57°F / 14°C 78% 29.92 in
(1013 mb)
N 17.3 mph
(N 28 kph)
- 3SM
17:14
Partly Cloudy
Hazy
64°F / 18°C 57°F / 14°C 78% 29.92 in
(1013 mb)
N 18.4 mph
(N 30 kph)
- 3SM
16:54
Partly Cloudy
Hazy
64°F / 18°C 57°F / 14°C 78% 29.92 in
(1013 mb)
N 21.9 mph
(N 35 kph)
- 3SM
16:33
Mostly Cloudy
Hazy
66°F / 19°C 57°F / 14°C 73% 29.92 in
(1013 mb)
N 20.7 mph
(N 33 kph)
- 3SM
16:14
Overcast
Hazy
66°F / 19°C 59°F / 15°C 78% 29.92 in
(1013 mb)
N 15 mph
(N 24 kph)
- 5SM
15:53
Overcast
68°F / 20°C 63°F / 17°C 83% 29.92 in
(1013 mb)
N 19.6 mph
(N 32 kph)
- 7SM
15:34
Overcast
66°F / 19°C 61°F / 16°C 83% 29.89 in
(1012 mb)
N 23 mph
(N 37 kph)
- 7SM
15:13
Overcast
66°F / 19°C 63°F / 17°C 88% 29.89 in
(1012 mb)
N 19.6 mph
(N 32 kph)
- 7SM
14:54
Overcast
66°F / 19°C 63°F / 17°C 88% 29.86 in
(1011 mb)
N 17.3 mph
(N 28 kph)
- 10SM
14:34
Overcast
Light Rain
68°F / 20°C 64°F / 18°C 88% 29.86 in
(1011 mb)
N 21.9 mph
(N 35 kph)
- 4SM
14:14
Overcast
75°F / 24°C 68°F / 20°C 78% 29.83 in
(1010 mb)
W 13.8 mph
(W 22 kph)
- 10SM
13:54
Mostly Cloudy
77°F / 25°C 70°F / 21°C 79% 29.83 in
(1010 mb)
WNW 15 mph
(WNW 24 kph)
0.10 in
(2.54 mm)
10SM
13:33
Overcast
Light Rain
72°F / 22°C 68°F / 20°C 88% 29.86 in
(1011 mb)
W 11.5 mph
(W 19 kph)
0.10 in
(2.54 mm)
2 1/2SM
13:14
Overcast
73°F / 23°C 68°F / 20°C 83% 29.83 in
(1010 mb)
SW 8.1 mph
(SW 13 kph)
- 10SM
12:54
Overcast
73°F / 23°C 66°F / 19°C 78% 29.86 in
(1011 mb)
SW 5.8 mph
(SW 9 kph)
- 10SM
12:34
Overcast
73°F / 23°C 66°F / 19°C 78% 29.86 in
(1011 mb)
SW 6.9 mph
(SW 11 kph)
- 10SM
12:14
Overcast
73°F / 23°C 66°F / 19°C 78% 29.86 in
(1011 mb)
SSW 8.1 mph
(SSW 13 kph)
- 10SM
11:53
Overcast
72°F / 22°C 66°F / 19°C 83% 29.86 in
(1011 mb)
SSW 6.9 mph
(SSW 11 kph)
- 10SM
11:34
Overcast
72°F / 22°C 66°F / 19°C 83% 29.86 in
(1011 mb)
SSW 6.9 mph
(SSW 11 kph)
- 10SM
11:13
Overcast
72°F / 22°C 66°F / 19°C 83% 29.86 in
(1011 mb)
SSW 5.8 mph
(SSW 9 kph)
- 10SM
10:54
Partly Cloudy
72°F / 22°C 66°F / 19°C 83% 29.83 in
(1010 mb)
SW 9.2 mph
(SW 15 kph)
- 10SM
10:33
Mostly Cloudy
72°F / 22°C 66°F / 19°C 83% 29.86 in
(1011 mb)
SW 8.1 mph
(SW 13 kph)
- 10SM
10:13
Overcast
72°F / 22°C 66°F / 19°C 83% 29.86 in
(1011 mb)
SW 8.1 mph
(SW 13 kph)
- 10SM
09:53
Mostly Cloudy
72°F / 22°C 68°F / 20°C 88% 29.86 in
(1011 mb)
SW 8.1 mph
(SW 13 kph)
- 10SM
09:34
Overcast
72°F / 22°C 68°F / 20°C 88% 29.86 in
(1011 mb)
SSE 9.2 mph
(SSE 15 kph)
- 7SM
09:14
Mostly Cloudy
72°F / 22°C 68°F / 20°C 88% 29.86 in
(1011 mb)
S 11.5 mph
(S 19 kph)
- 7SM
08:53
Overcast
Light Rain
70°F / 21°C 68°F / 20°C 94% 29.89 in
(1012 mb)
S 10.4 mph
(S 17 kph)
- 5SM
08:33
Overcast
Light Rain
70°F / 21°C 68°F / 20°C 94% 29.89 in
(1012 mb)
S 9.2 mph
(S 15 kph)
- 7SM
08:14
Overcast
Light Rain
70°F / 21°C 68°F / 20°C 94% 29.89 in
(1012 mb)
S 9.2 mph
(S 15 kph)
- 7SM
07:53
Overcast
Light Rain
70°F / 21°C 68°F / 20°C 94% 29.89 in
(1012 mb)
S 9.2 mph
(S 15 kph)
0.01 in
(0.25 mm)
7SM
07:34
Partly Cloudy
Light Rain
70°F / 21°C 68°F / 20°C 94% 29.86 in
(1011 mb)
SSE 5.8 mph
(SSE 9 kph)
- 7SM
07:12
Clear
70°F / 21°C 68°F / 20°C 94% 29.86 in
(1011 mb)
SSE 4.6 mph
(SSE 7 kph)
- 7SM
06:53
Clear
70°F / 21°C 66°F / 19°C 88% 29.86 in
(1011 mb)
Calm 0.07 in
(1.78 mm)
7SM
06:34
Partly Cloudy
Fog And Mist
68°F / 20°C 66°F / 19°C 94% 29.89 in
(1012 mb)
W 5.8 mph
(W 9 kph)
0.07 in
(1.78 mm)
5SM
06:13
Overcast
Light Rain
70°F / 21°C 66°F / 19°C 88% 29.89 in
(1012 mb)
NW 10.4 mph
(NW 17 kph)
0.07 in
(1.78 mm)
1 3/4SM
05:53
Overcast
70°F / 21°C 68°F / 20°C 94% 29.89 in
(1012 mb)
SSW 11.5 mph
(SSW 19 kph)
0.03 in
(0.76 mm)
3SM
05:34
Overcast
Fog And Mist
70°F / 21°C 68°F / 20°C 94% 29.89 in
(1012 mb)
SW 10.4 mph
(SW 17 kph)
- 4SM
05:14
Mostly Cloudy
Fog And Mist
70°F / 21°C 68°F / 20°C 94% 29.86 in
(1011 mb)
SW 10.4 mph
(SW 17 kph)
- 4SM
04:54
Partly Cloudy
Light Rain
70°F / 21°C 68°F / 20°C 94% 29.83 in
(1010 mb)
SW 9.2 mph
(SW 15 kph)
- 5SM
04:33
Clear
72°F / 22°C 68°F / 20°C 88% 29.86 in
(1011 mb)
SW 11.5 mph
(SW 19 kph)
- 7SM
04:14
Partly Cloudy
Thunder Storms
72°F / 22°C 68°F / 20°C 88% 29.86 in
(1011 mb)
S 11.5 mph
(S 19 kph)
- 7SM
03:54
Mostly Cloudy
72°F / 22°C 68°F / 20°C 88% 29.86 in
(1011 mb)
S 10.4 mph
(S 17 kph)
- 7SM
03:34
Partly Cloudy
72°F / 22°C 68°F / 20°C 88% 29.86 in
(1011 mb)
S 13.8 mph
(S 22 kph)
- 7SM
03:13
Clear
72°F / 22°C 68°F / 20°C 88% 29.83 in
(1010 mb)
S 11.5 mph
(S 19 kph)
- 7SM
02:54
Partly Cloudy
72°F / 22°C 66°F / 19°C 83% 29.83 in
(1010 mb)
S 15 mph
(S 24 kph)
- 7SM
02:33
Partly Cloudy
72°F / 22°C 66°F / 19°C 83% 29.83 in
(1010 mb)
S 17.3 mph
(S 28 kph)
- 7SM
02:14
Clear
70°F / 21°C 66°F / 19°C 88% 29.86 in
(1011 mb)
S 15 mph
(S 24 kph)
- 7SM
01:54
Partly Cloudy
70°F / 21°C 66°F / 19°C 88% 29.86 in
(1011 mb)
S 15 mph
(S 24 kph)
- 7SM
01:33
Clear
70°F / 21°C 66°F / 19°C 88% 29.86 in
(1011 mb)
S 13.8 mph
(S 22 kph)
- 7SM
01:13
Clear
70°F / 21°C 66°F / 19°C 88% 29.89 in
(1012 mb)
S 12.7 mph
(S 20 kph)
- 7SM
00:54
Clear
Fog And Mist
70°F / 21°C 66°F / 19°C 88% 29.89 in
(1012 mb)
S 12.7 mph
(S 20 kph)
- 5SM
00:33
Clear
70°F / 21°C 66°F / 19°C 88% 29.89 in
(1012 mb)
S 10.4 mph
(S 17 kph)
- 7SM
00:13
Clear
70°F / 21°C 66°F / 19°C 88% 29.89 in
(1012 mb)
S 12.7 mph
(S 20 kph)
- 7SM
Time Weather Temperature Dewpoint Humidity Pressure Winds Precip Visibility


Weather for websites

WeatherForYou.com, LLC is not responsible for any damages or problems caused by this service. Current weather conditions are obtained from the closest station including government and personal stations which may have varying degrees of accuracy. Weather forecasts are derived from the NOAA NDFD. Like all things, this site belongs to Jesus Christ... He just trusts us to maintain it. If you have any questions or comments email webmaster@weatherforyou.com

Copyright © 2015, WeatherForYou.com LLC. All rights reserved.